Theta_e
342 339 343 344 344 345 347 347 346 347 347 344 344 342 341 340 340 341 341 341 342 341 341 339 338 338 337 336 336 336 335 335 335 335 334 334 333 333 332 333 333 333 335
343 345 345 345 346 345 346 347 347 348 347 345 342 345 341 340 336 336 340 341 340 340 340 339 339 339 338 337 336 335 335 335 336 336 335 334 334 334 333 332 332 331 332
344 346 346 347 349 348 348 348 346 347 346 346 345 341 341 338 337 338 339 340 341 341 341 341 340 339 338 337 336 334 334 333 332 333 334 334 334 334 334 334 333 333 332
343 343 348 347 346 348 349 348 344 348 347 346 347 346 341 341 339 338 339 340 341 341 341 342 341 340 338 337 336 334 331 328 326 324 326 325 324 322 321 319 317 319 325
342 343 341 344 347 349 349 348 349 348 350 346 343 343 343 339 338 340 340 341 340 339 342 338 340 340 338 337 336 333 328 327 326 325 325 325 323 320 323 326 325 321 311
347 344 342 340 342 346 347 345 347 348 346 345 343 340 339 340 339 342 341 341 341 340 340 338 339 339 337 337 337 335 330 328 326 328 329 324 322 325 328 328 328 328 322
347 348 346 345 339 338 338 339 345 346 346 343 342 339 337 337 338 341 342 340 341 341 340 339 339 339 338 337 337 335 333 330 330 331 331 331 330 328 328 328 328 328 324
344 347 347 348 348 348 347 344 343 344 345 343 344 341 340 338 337 340 339 340 342 341 340 340 339 339 338 337 335 335 335 332 331 331 332 331 330 330 329 326 326 323 313
346 346 348 349 349 349 350 350 348 347 345 342 344 343 343 339 336 337 338 340 341 340 339 339 340 338 336 334 335 333 334 333 331 331 331 331 331 330 328 325 316 311 316
346 345 347 348 348 349 350 350 351 348 347 343 341 340 339 336 337 341 337 338 341 339 338 335 334 334 334 335 334 333 334 333 332 331 330 329 326 319 315 313 312 314 318
345 344 350 347 349 350 352 352 352 349 349 346 342 340 341 338 336 339 337 340 341 336 334 334 334 333 333 330 329 329 330 331 330 327 325 320 317 315 316 318 317 321 320
342 345 350 349 348 350 352 351 350 348 349 348 341 341 339 340 337 338 339 341 341 335 333 333 332 332 331 331 331 328 323 322 320 318 316 317 317 316 316 321 320 321 322
343 346 348 349 349 349 352 352 350 349 347 349 343 338 338 339 336 335 339 342 341 338 333 332 332 332 332 330 321 319 319 319 318 318 317 315 314 314 316 318 319 318 318
337 342 346 348 348 350 354 353 352 347 352 348 346 339 338 337 337 338 343 342 339 338 334 334 332 328 322 319 317 315 314 312 311 313 315 317 318 319 318 317 318 318 318
334 336 339 342 344 347 351 352 350 345 352 352 352 346 338 340 341 342 343 337 337 336 334 332 328 321 316 310 310 312 314 316 316 317 317 318 319 319 320 321 320 320 320
335 335 336 340 343 346 348 347 344 347 353 353 353 348 344 341 342 341 339 337 335 334 335 329 319 312 311 313 315 316 317 317 317 317 318 316 317 317 317 317 316 316 316
335 334 333 335 338 340 340 342 344 351 353 353 353 351 348 342 342 339 337 333 330 329 325 319 311 312 312 313 313 314 315 315 316 314 315 314 314 314 314 314 313 313 313
341 342 344 344 342 342 343 346 350 355 353 354 354 352 343 343 341 337 336 329 320 311 311 310 311 312 313 310 305 304 307 310 312 313 315 313 313 313 312 312 311 311 311
346 348 347 346 345 344 346 351 356 355 355 354 349 345 342 343 338 338 328 318 309 307 308 310 312 312 312 312 310 305 305 309 312 312 312 312 313 313 312 311 311 311 311
347 348 348 346 343 348 352 357 357 357 358 353 344 343 344 339 337 327 317 309 307 309 310 311 312 311 311 312 304 307 311 312 314 311 311 311 312 312 312 313 313 313 317
347 347 346 344 349 355 357 359 362 359 356 347 344 342 338 336 326 320 311 309 311 311 310 314 313 312 311 311 303 306 313 313 311 311 312 312 313 312 313 314 317 318 319
346 347 346 348 356 359 361 361 360 359 349 345 343 340 336 327 322 313 309 310 311 311 311 316 315 313 313 312 302 311 314 314 310 311 312 313 312 313 315 317 317 317 320
347 348 349 356 358 359 358 357 355 350 346 343 340 336 333 323 316 309 309 312 312 312 311 314 316 313 313 309 303 311 315 314 312 312 314 313 314 316 317 317 318 318 322
347 350 355 358 358 358 356 355 353 348 345 340 337 334 330 321 311 308 311 313 313 312 311 314 315 312 311 302 303 310 315 315 313 311 313 313 315 317 318 318 319 319 318
349 352 358 358 359 358 356 353 350 348 344 339 336 333 324 316 309 311 312 313 312 310 312 314 313 310 302 301 303 311 316 318 316 313 312 313 316 317 318 319 319 318 319
351 355 360 359 359 356 354 351 349 347 344 339 334 330 320 311 309 312 313 313 311 308 310 312 310 302 301 301 304 308 309 314 315 314 312 312 317 317 317 318 319 318 319
Wind_Speed
5 6 5 3 3 3 3 5 7 9 12 12 12 11 9 11 12 10 6 4 4 5 8 9 8 9 9 9 10 12 12 12 11 12 12 13 12 12 11 12 12 14 16
8 6 5 3 2 3 5 9 11 10 11 16 16 15 15 15 14 9 7 6 5 6 8 8 8 9 10 9 11 12 13 13 13 13 12 13 12 12 12 12 13 14 16
5 3 2 1 4 6 7 12 10 9 12 16 16 14 15 13 10 8 9 11 9 10 10 10 11 12 11 10 12 13 12 11 11 12 13 13 13 13 13 13 14 16 18
5 4 3 5 8 7 9 13 10 8 12 15 17 16 17 16 11 9 10 11 12 14 14 16 17 16 11 11 12 10 10 8 8 9 10 11 11 10 10 10 12 15 17
4 5 7 8 9 10 12 14 13 13 15 16 17 12 17 16 12 11 10 11 13 14 13 16 16 17 14 12 10 8 7 6 5 4 7 9 7 6 6 10 12 15 18
6 5 8 10 12 14 16 17 16 14 16 18 17 12 12 10 14 16 10 15 20 12 12 16 16 18 16 15 12 9 7 6 5 7 6 6 7 9 12 16 18 20 19
7 7 6 8 10 13 17 16 17 18 17 18 16 12 11 10 12 14 19 24 14 13 16 18 16 19 12 13 14 13 11 9 8 9 11 11 14 16 18 20 23 26 27
7 6 5 6 7 9 12 13 14 16 17 14 14 11 9 10 18 16 14 16 12 16 20 18 16 11 9 12 15 15 16 15 13 14 14 17 20 21 22 23 25 28 26
8 8 9 11 11 13 13 11 11 12 13 10 7 5 3 5 19 15 14 15 17 19 16 12 9 9 11 12 11 11 15 16 16 18 19 20 20 23 26 27 28 22 18
12 11 13 15 13 16 18 18 14 18 21 16 12 9 6 9 10 8 17 15 18 12 8 4 4 5 6 8 6 7 9 15 18 21 20 19 19 23 24 23 21 17 15
17 15 13 12 11 16 20 24 17 18 19 18 12 11 10 12 12 11 22 20 11 9 5 5 5 5 4 4 8 12 16 18 20 21 21 22 23 22 21 20 18 16 16
19 17 13 13 13 14 16 19 20 21 19 18 13 13 14 13 10 11 18 18 7 5 4 5 4 5 8 11 16 17 17 18 19 20 22 24 25 26 25 21 20 19 18
20 19 17 17 18 18 18 21 20 21 21 22 20 15 15 15 13 16 14 12 7 7 8 8 9 12 16 17 17 17 18 19 22 24 26 27 28 26 25 25 25 24 24
23 21 21 21 21 19 18 23 24 27 24 23 20 16 13 14 16 11 10 8 7 6 9 11 13 14 15 16 18 19 20 22 22 22 22 22 23 22 23 24 25 26 26
21 22 23 23 23 23 23 24 26 27 25 24 22 16 14 10 13 9 8 9 7 5 8 10 12 15 16 18 19 20 20 20 20 21 20 21 21 22 25 25 25 25 27
20 22 22 21 21 22 23 26 28 25 25 24 23 20 13 10 9 11 6 6 8 9 9 11 13 14 17 18 19 19 19 19 18 19 22 21 24 26 25 26 24 23 24
20 21 23 25 26 26 26 27 22 22 23 21 20 18 12 7 10 8 8 8 10 10 9 7 10 13 15 16 17 18 18 19 17 20 23 21 19 13 17 20 20 22 22
16 17 20 22 23 22 21 21 18 18 17 16 16 15 5 5 7 8 8 10 10 8 5 4 8 11 15 18 21 22 21 21 21 23 18 8 13 16 17 19 19 14 13
14 15 16 18 19 18 15 15 15 14 12 12 14 4 2 3 7 6 9 10 9 8 8 8 10 14 17 22 25 26 22 22 21 20 19 10 12 14 15 14 18 13 17
16 16 16 16 14 11 12 12 12 10 9 9 5 3 4 4 5 7 8 8 9 9 9 10 14 19 22 25 31 33 30 23 20 21 18 10 12 15 15 13 12 15 17
14 14 13 12 9 8 10 10 9 7 6 3 2 5 3 1 4 6 7 8 8 10 10 12 17 21 26 31 35 34 29 23 22 25 16 10 14 14 14 16 17 18 19
13 12 10 8 6 7 9 9 7 2 1 1 4 5 3 2 4 6 6 8 8 10 11 13 18 22 25 30 33 36 27 28 24 25 16 12 16 17 18 20 20 20 19
11 10 7 7 8 8 8 7 3 2 1 5 5 4 3 3 5 6 7 7 8 9 11 13 16 22 25 30 29 36 28 23 23 25 18 15 18 20 20 21 23 23 20
11 9 8 8 8 7 7 5 3 3 4 8 5 4 2 3 5 7 7 8 8 9 10 10 14 19 22 24 24 29 28 22 24 26 25 21 18 22 23 22 26 29 23
11 11 10 7 8 7 7 5 6 6 7 9 7 4 3 3 5 8 8 9 9 8 8 10 13 18 21 21 22 27 33 34 28 28 28 24 14 23 28 27 24 25 26
12 12 10 9 8 7 7 8 8 6 9 8 8 6 4 3 7 10 9 8 8 8 8 10 13 16 22 23 21 26 29 32 33 24 26 23 23 9 24 25 25 27 26
Wind_Direction
132 123 152 136 99 70 28 27 359 352 1 2 360 358 354 331 305 309 323 309 293 300 301 302 298 307 299 297 298 285 279 272 270 266 261 264 265 265 263 259 259 260 255
129 116 153 128 40 353 360 4 347 339 347 1 352 344 345 344 349 326 318 322 310 317 319 312 314 319 322 302 314 301 286 277 273 271 269 270 269 268 266 267 268 263 261
142 116 142 304 307 319 344 351 337 334 345 351 347 342 340 332 341 332 321 315 304 302 297 302 297 303 316 303 307 307 296 283 281 283 282 280 279 276 276 276 274 273 267
202 232 278 302 311 335 336 342 338 332 330 340 346 343 328 319 303 339 316 307 301 294 294 296 294 288 291 295 300 300 300 302 287 275 275 274 276 281 286 291 292 280 269
242 254 278 285 303 318 324 332 341 333 335 335 341 329 319 312 293 294 346 318 316 298 288 304 291 283 273 274 280 287 293 295 275 270 291 277 270 267 297 307 308 309 284
268 288 294 285 284 296 306 312 319 322 326 328 332 331 338 324 312 282 298 327 302 306 295 311 288 278 260 262 256 265 285 284 273 277 304 291 274 283 301 308 307 308 306
247 267 326 339 310 303 307 302 307 317 324 325 325 327 339 341 340 306 292 307 303 295 296 306 292 288 248 278 247 243 252 258 261 275 274 284 281 281 291 300 304 305 305
238 264 299 325 327 326 328 320 315 319 323 323 322 327 337 354 348 324 324 322 295 295 295 299 296 290 277 284 267 248 243 248 258 268 276 277 284 285 289 295 294 298 292
255 268 288 293 304 309 314 321 322 318 312 301 302 313 314 321 341 352 346 336 310 303 305 304 300 293 291 290 284 285 263 259 265 273 279 275 273 279 284 288 292 291 281
261 274 290 287 289 297 302 309 302 318 311 322 323 320 315 333 336 315 335 334 320 323 318 310 296 278 295 307 302 288 279 270 276 285 285 279 279 281 286 290 291 278 271
258 271 284 283 298 301 306 308 305 298 306 311 309 308 308 317 334 322 327 337 328 313 327 309 299 290 287 305 310 299 282 276 272 276 276 277 284 287 287 283 281 274 265
253 262 273 286 298 301 306 310 314 315 302 300 299 305 314 316 324 327 325 335 319 287 305 314 304 295 286 292 301 294 286 279 277 277 279 281 282 283 279 266 264 258 252
255 262 270 280 292 297 299 306 317 321 309 291 287 297 315 313 310 321 323 330 319 258 274 281 292 294 300 302 300 289 284 282 282 281 281 283 284 281 274 267 263 255 253
260 266 270 277 283 289 296 303 307 315 309 301 291 293 298 322 319 328 328 329 328 273 269 276 295 306 312 310 303 299 295 292 293 293 294 293 287 282 273 264 260 258 256
264 271 272 275 281 285 292 297 304 312 315 310 303 301 297 323 338 338 336 335 325 319 292 287 313 316 319 325 328 330 326 318 312 307 301 293 289 281 278 273 272 272 265
266 271 277 280 284 286 292 298 306 307 308 313 308 303 308 322 338 354 349 336 328 311 295 310 327 335 343 345 341 337 330 327 320 313 304 301 288 287 284 284 282 275 268
264 271 276 279 284 288 295 300 304 303 304 308 311 305 311 322 346 10 349 338 329 320 308 316 1 15 11 2 355 351 346 343 328 326 314 300 297 295 292 293 291 287 279
268 271 279 283 287 291 297 299 303 303 309 312 309 313 302 334 10 347 338 339 333 337 340 31 15 6 14 14 9 357 348 345 333 336 343 302 299 302 299 300 304 296 281
269 276 286 289 289 291 295 298 303 308 311 312 330 359 80 25 355 337 346 347 6 30 43 31 21 12 11 6 360 5 357 348 343 348 354 323 319 322 322 294 299 294 300
267 277 282 286 288 293 291 298 301 300 311 326 2 90 83 23 339 354 359 15 36 46 40 26 24 18 13 10 7 4 2 356 356 358 353 339 334 341 331 328 327 323 313
267 273 275 277 285 275 283 292 297 309 319 328 130 102 55 21 4 15 31 49 51 42 33 31 27 18 14 10 6 2 360 1 359 3 5 7 356 357 3 0 350 337 326
260 264 268 272 247 264 291 297 307 270 314 264 163 131 122 67 30 37 54 64 49 41 35 32 23 18 13 7 7 7 6 8 8 5 15 26 19 22 21 12 3 352 350
253 256 258 242 248 280 281 286 266 276 181 151 135 121 104 73 47 56 69 65 59 43 30 27 20 17 10 4 5 11 15 15 21 15 21 41 41 40 31 27 26 23 25
241 241 233 226 262 261 267 256 207 175 169 154 146 140 84 56 58 68 77 75 59 38 28 25 20 16 8 4 13 15 22 37 34 30 29 39 52 48 50 46 43 37 34
230 233 226 233 249 240 243 223 198 183 180 172 169 150 122 63 86 96 82 72 55 38 47 41 30 18 8 15 18 22 28 34 34 29 36 36 53 56 55 47 47 44 42
227 226 211 225 223 227 220 193 185 190 192 188 173 155 147 117 111 99 85 72 55 57 59 53 43 34 31 30 30 29 29 34 32 31 31 36 40 50 52 52 53 45 49